Location: Franzen
(48.6167°N, 15.3833°E)
Time: 07:55:57
(UTC+00:00)

Altair - Pass Details

Date: 01 August 2021
Orbit: 1501 x 1682 km, 47.2° (Epoch: 20 September)

Event Time Altitude Azimuth Distance (km) Brightness Sun altitude
Rises 04:01:11 0° 273° (W) 4,687 9.5 3.4°
Reaches altitude 10° 04:04:15 10° 272° (W) 3,688 9.0 3.8°
Maximum altitude 04:13:30 82° 187° (S) 1,521 7.6 5.3°
Drops below altitude 10° 04:22:41 10° 102° (ESE) 3,658 10.7 6.7°
Sets 04:25:42 0° 101° (ESE) 4,648 11.2 7.2°
